Weather History for KSWO - February, 2013

Change the Weather History Date:

Thursday, February 14, 2013

  Actual Average Record
Temperature  
Mean Temperature 45 °F -  
Max Temperature 60 °F 52 °F 77 °F (2015)
Min Temperature 30 °F 30 °F 14 °F (2007)
Degree Days  
Heating Degree Days 20    
Moisture  
Dew Point 31 °F    
Average Humidity 63    
Maximum Humidity 89    
Minimum Humidity 36    
Precipitation  
Precipitation 0.00 in - - ()
Sea Level Pressure  
Sea Level Pressure 30.08 in    
Wind  
Wind Speed 7 mph (NNW)    
Max Wind Speed 20 mph    
Max Gust Speed 30 mph    
Visibility 10 miles    
Events Rain    
Averages and records for this station are not official NWS values.
T = Trace of Precipitation, MM = Missing Value Source: NWS Daily Summary

Daily Weather History Graph

Daily Weather History Graph

Search for Another Location

Airport or City:

Trip Planner

Search our weather history database for the weather conditions in past years. The results will help you decide how hot, cold, wet, or windy it might be!

Date:

Astronomy

Feb. 14, 2013 Rise Set
Actual Time 7:16 AM CST 6:08 PM CST
Civil Twilight 6:50 AM CST 6:35 PM CST
Nautical Twilight 6:20 AM CST 7:05 PM CST
Astronomical Twilight 5:50 AM CST 7:35 PM CST
Moon 9:29 AM CST (2/14) 11:01 PM CST (2/14)
Length of Visible Light 11h 44m
Length of Day
10h 52m
Waxing Crescent, 22% of the Moon is Illuminated
Feb 14
Waxing Crescent
Feb 17
First Quarter
Feb 25
Full
Mar 4
Last Quarter
Mar 11
New

Hourly Weather History & Observations

Time (CST) Temp. Windchill Dew Point Humidity Pressure Visibility Wind Dir Wind Speed Gust Speed Precip Events Conditions
12:53 AM 34.0 °F 28.8 °F 26.1 °F 73% 29.99 in 10.0 mi West 5.8 mph - N/A   Clear
1:53 AM 33.1 °F 28.7 °F 26.1 °F 75% 29.99 in 10.0 mi West 4.6 mph - N/A   Clear
2:53 AM 33.1 °F 27.7 °F 26.1 °F 75% 29.99 in 10.0 mi West 5.8 mph - N/A   Clear
3:53 AM 33.1 °F 27.7 °F 26.1 °F 75% 29.98 in 10.0 mi WSW 5.8 mph - N/A   Clear
4:53 AM 30.9 °F - 25.0 °F 79% 29.99 in 10.0 mi Calm Calm - N/A   Clear
5:53 AM 30.9 °F 27.5 °F 26.1 °F 82% 30.00 in 10.0 mi West 3.5 mph - N/A   Clear
6:53 AM 30.9 °F 26.2 °F 26.1 °F 82% 30.02 in 10.0 mi WNW 4.6 mph - N/A   Clear
7:53 AM 32.0 °F 28.7 °F 28.0 °F 85% 30.05 in 9.0 mi West 3.5 mph - N/A   Clear
8:53 AM 39.0 °F 35.7 °F 30.9 °F 73% 30.07 in 10.0 mi WNW 4.6 mph - N/A   Clear
9:53 AM 46.0 °F 41.0 °F 30.9 °F 56% 30.08 in 10.0 mi North 10.4 mph - N/A   Clear
10:53 AM 50.0 °F - 32.0 °F 50% 30.09 in 10.0 mi NNE 11.5 mph - N/A   Clear
11:53 AM 53.1 °F - 32.0 °F 45% 30.09 in 10.0 mi NNE 8.1 mph - N/A   Clear
12:53 PM 55.9 °F - 33.1 °F 42% 30.07 in 10.0 mi NNE 6.9 mph - N/A   Clear
1:53 PM 57.9 °F - 34.0 °F 41% 30.04 in 10.0 mi North 6.9 mph - N/A   Clear
2:53 PM 60.1 °F - 34.0 °F 38% 30.04 in 10.0 mi North 9.2 mph - N/A   Clear
3:53 PM 59.0 °F - 32.0 °F 36% 30.04 in 10.0 mi North 12.7 mph - N/A   Clear
4:53 PM 54.0 °F - 30.9 °F 41% 30.08 in 10.0 mi North 15.0 mph - N/A   Clear
5:53 PM 52.0 °F - 32.0 °F 47% 30.12 in 10.0 mi North 10.4 mph - N/A   Partly Cloudy
6:53 PM 50.0 °F - 34.0 °F 54% 30.14 in 10.0 mi North 6.9 mph - N/A   Overcast
7:53 PM 48.9 °F - 32.0 °F 52% 30.17 in 10.0 mi North 11.5 mph - N/A   Overcast
8:53 PM 46.0 °F 38.5 °F 34.0 °F 63% 30.20 in 10.0 mi North 19.6 mph 29.9 mph N/A   Overcast
9:53 PM 42.1 °F 35.2 °F 37.0 °F 82% 30.24 in 10.0 mi North 12.7 mph - 0.00 in Rain Light Rain
10:53 PM 41.0 °F - 37.9 °F 89% 30.24 in 10.0 mi Calm Calm - 0.00 in   Overcast
11:53 PM 39.0 °F 35.7 °F 36.0 °F 89% 30.25 in 10.0 mi NW 4.6 mph - N/A   Mostly Cloudy